Location: Les Moreaux
(47.2278°N, 1.4966°E)
Time: 15:19:58
(UTC+00:00)

PSLV R/B - Pass Details

Date: 19 May 2025
Orbit: 401 x 431 km, 97.7° (Epoch: 17 June)

Event Time Altitude Azimuth Distance (km) Brightness Sun altitude
Exits shadow 20:51:33 20° 131° (SE) 1,046 4.6 -11.7°
Maximum altitude 20:53:23 39° 71° (ENE) 650 4.0 -11.9°
Drops below altitude 10° 20:56:27 10° 1° (N) 1,525 6.8 -12.2°
Sets 20:58:33 0° 354° (N) 2,405 8.1 -12.5°
